[[{"header":{"parameterUnit":"m.s-1","parameterCategory":1,"la1":30.2991,"la2":30.254,"lo1":-89.0895,"lo2":-89.0444,"dy":0.0017,"dx":0.0017,"nx":28,"ny":28,"refTime":"2025-11-27T09:00:00:Z","depth":0,"parameterNumber":2,"parameterNumberName":"U-component_of_WINDS"},"data":[0,0,0,0,0,0,0,0,0,0,0,0,0,0,0,0,0,0,0,0,0,0,0,0,0,0,0,0,0,0,0,0,0,0,0,0,0,0,0,0,0,0,0,0,0,0,0,0,0,0,0,0,0,0,0,0,0,0,-5.0962,-5.0962,0,-5.1023,-5.1024,-5.1024,-5.087,-5.0865,-5.0861,-5.0856,-5.0918,-5.0924,-5.093,0,0,0,0,0,0,0,0,0,0,0,0,0,-5.0708,-5.0714,-5.0962,-5.0962,-5.0963,-5.1023,-5.1024,-5.1025,-5.0871,-5.0865,-5.0859,-5.0854,-5.0916,-5.0923,-5.093,0,0,0,0,0,0,0,0,0,0,0,0,0,-5.0799,-5.0715,-5.0962,-5.0894,-5.0888,-5.1023,-5.1024,-5.1025,-5.0872,-5.0865,-5.0858,-5.0851,-5.0913,-5.0922,-5.0931,-5.1134,0,0,-5.096,-5.0964,0,0,0,0,0,0,0,0,-5.0794,-5.0808,-5.0903,-5.0899,-5.0893,-5.0932,-5.0957,-5.1061,-5.0874,-5.0879,-5.0856,-5.0847,-5.0928,-5.0936,-5.0963,-5.1137,-5.114,-5.0961,-5.0966,-5.097,-5.0973,0,0,0,0,0,0,0,-5.0788,-5.0805,-5.0986,-5.0905,-5.0898,-5.0859,-5.0864,-5.0976,-5.0943,-5.0878,-5.0866,-5.0876,-5.0924,-5.0955,-5.0964,-5.114,-5.096,-5.0969,-5.0974,-5.0978,-5.1479,-5.1487,0,0,0,0,0,0,-5.079,-5.0801,-5.0984,-5.0988,-5.0824,-5.087,-5.0875,-5.0927,-5.0942,-5.0937,-5.0882,-5.0868,-5.0942,-5.0953,-5.0965,-5.12,-5.097,-5.0979,-5.0984,-5.1472,-5.1481,-5.1489,0,0,0,0,0,0,-5.0786,-5.0808,-5.0981,-5.0891,-5.091,-5.0882,-5.0941,-5.0932,-5.0962,-5.0945,-5.0938,-5.092,-5.0937,-5.0952,-5.1092,-5.12,-5.0983,-5.0991,-5.1462,-5.1475,-5.1485,-5.1675,0,0,0,0,0,0,-5.0779,-5.0808,-5.0885,-5.0894,-5.0916,-5.1109,-5.0948,-5.0938,-5.0978,-5.0961,-5.0979,-5.0974,-5.0933,-5.1079,-5.1102,-5.1209,-5.0999,-5.1453,-5.1468,-5.1482,-5.1659,-5.1691,-5.172,0,0,0,0,0,-5.0771,-5.0937,-5.089,-5.0913,-5.1012,-5.1116,-5.1128,-5.1077,-5.0988,-5.1065,-5.1053,-5.0974,-5.1186,-5.1095,-5.1119,-5.1231,-5.1446,-5.1464,-5.148,-5.1645,-5.1685,-5.1719,0,0,0,0,0,0,-5.0942,-5.0937,-5.0885,-5.1059,-5.1089,-5.109,-5.1185,-5.1122,-5.1177,-5.1159,-5.1092,-5.1098,-5.125,-5.1254,-5.1154,-5.1426,-5.13,-5.1323,-5.1417,-5.1455,-5.1485,-5.148,-5.1006,0,0,0,0,0,-5.1,-5.1085,-5.1076,-5.123,-5.1248,-5.1215,-5.1258,-5.1216,-5.1244,-5.1256,-5.1255,-5.1285,-5.1357,-5.1406,-5.1473,-5.1659,-5.1659,-5.1747,-5.1778,-5.1803,-5.1823,-5.1918,-5.1957,-5.1547,-5.1547,-5.1546,0,0,-5.112,-5.1128,-5.1186,-5.1265,-5.1283,-5.1371,-5.1226,-5.1327,-5.1391,-5.1271,-5.1402,-5.1403,-5.1431,-5.1595,-5.1667,-5.1603,-5.1936,-5.1825,-5.1845,-5.1852,-5.194,-5.1979,-5.2014,-5.1559,-5.1557,-5.1555,0,0,-5.1385,-5.1401,-5.1529,-5.155,-5.1579,-5.1556,-5.1587,-5.1597,-5.1592,-5.1724,-5.1634,-5.1709,-5.1837,-5.186,-5.1889,-5.216,-5.2087,-5.2183,-5.2341,-5.2435,-5.2467,-5.2496,-5.2589,-5.2624,-5.2204,-5.2204,-5.2204,0,-5.1531,-5.1661,-5.1604,-5.1709,-5.1745,-5.164,-5.1769,-5.1792,-5.1842,-5.1868,-5.1797,-5.1952,-5.1965,-5.213,-5.2196,-5.2224,-5.2255,-5.218,-5.2468,-5.2495,-5.2521,-5.2609,-5.2645,-5.2215,-5.2214,-5.2213,-5.2212,0,-5.1838,-5.1929,-5.203,-5.2079,-5.2127,-5.2244,-5.2203,-5.2257,-5.2211,-5.2194,-5.2327,-5.2338,-5.2403,-5.244,-5.2396,-5.2599,-5.2558,-5.2479,-5.2351,-5.2572,-5.2654,-5.2688,-5.2231,-5.2227,-5.2224,-5.2221,0,0,-5.2212,-5.2227,-5.2265,-5.2284,-5.2308,-5.2377,-5.2488,-5.2552,-5.2598,-5.2636,-5.2726,-5.2835,-5.2761,-5.2793,-5.2751,-5.2834,-5.3044,-5.2743,-5.2742,-5.2796,-5.3264,-5.3322,-5.3363,-5.2996,-5.3003,-5.3008,-5.3261,0,-5.2471,-5.2662,-5.2612,-5.2801,-5.2883,-5.2784,-5.288,-5.2904,-5.2892,-5.2958,-5.2943,-5.3021,-5.2918,-5.2937,-5.3015,-5.3002,-5.3136,-5.2983,-5.3077,-5.3081,-5.3071,-5.3406,-5.3469,-5.3707,-5.3293,-5.3298,-5.3302,0,-5.2799,-5.2847,-5.3045,-5.3052,-5.3085,-5.3172,-5.3225,-5.3291,-5.3315,-5.3299,-5.3335,-5.3275,-5.3383,-5.3255,-5.3401,-5.3298,-5.3333,-5.3333,-5.3341,-5.3346,-5.3204,-5.3418,-5.3782,-5.3817,-5.3353,-5.3349,-5.3345,0,-5.3048,-5.3164,-5.3296,-5.3316,-5.3329,-5.3392,-5.34,-5.3417,-5.3458,-5.3504,-5.3528,-5.3587,-5.3618,-5.3664,-5.3621,-5.3533,-5.3772,-5.3642,-5.376,-5.3762,-5.3814,-5.3811,-5.4187,-5.3842,-5.3841,-5.384,-5.384,0,-5.3341,-5.3465,-5.3407,-5.3489,-5.3624,-5.3565,-5.37,-5.3696,-5.3712,-5.3789,-5.3708,-5.3782,-5.3721,-5.379,-5.3756,-5.388,-5.3896,-5.3885,-5.3874,-5.3891,-5.3892,-5.3912,-5.3893,-5.385,-5.3848,-5.3846,-5.3844,0,-5.3642,-5.3609,-5.3746,-5.3746,-5.3749,-5.3848,-5.3847,-5.3921,-5.3902,-5.4001,-5.4021,-5.399,-5.4066,-5.4028,-5.4107,-5.4084,-5.4244,-5.4212,-5.4236,-5.4226,-5.4346,-5.4334,-5.4746,-5.4795,-5.4421,-5.4425,-5.4428,0,-5.383,-5.3923,-5.3933,-5.3978,-5.3992,-5.4067,-5.4107,-5.4053,-5.4098,-5.4131,-5.4201,-5.427,-5.4322,-5.4447,-5.4432,-5.4491,-5.4458,-5.4598,-5.4467,-5.448,-5.4457,-5.4451,-5.4459,-5.4624,-5.4629,-5.4632,-5.4635,0,-5.4166,-5.4145,-5.4206,-5.4262,-5.4312,-5.4353,-5.4387,-5.4429,-5.4375,-5.443,-5.4506,-5.4547,-5.4626,-5.4695,-5.4746,-5.4752,-5.4685,-5.4677,-5.4707,-5.4724,-5.4733,-5.4727,-5.4305,-5.4667,-5.4664,-5.4662,-5.466,-5.4659,-5.4415,-5.4491,-5.4509,-5.4579,-5.4599,-5.4632,-5.4701,-5.469,-5.4752,-5.4813,-5.4777,-5.4866,-5.4885,-5.4946,-5.4962,-5.5029,-5.4973,-5.5018,-5.5029,-5.504,-5.5054,-5.4724,-5.5039,-5.5038,-5.5037,-5.5036,-5.5036,0,-5.4744,-5.475,-5.4815,-5.4865,-5.492,-5.4852,-5.4885,-5.4935,-5.5014,-5.5038,-5.5091,-5.5177,-5.5243,-5.5232,-5.5291,-5.5347,-5.5317,-5.5364,-5.5358,-5.536,-5.5103,-5.5069,-5.5387,-5.5387,-5.5387,-5.5387,-5.5387,-5.5387,-5.4921,-5.5046,-5.5026,-5.5159,-5.5164,-5.5251,-5.5275,-5.5304,-5.5323,-5.5423,-5.5477,-5.5469,-5.5478,-5.5537,-5.5593,-5.5588,-5.5612,-5.5671,-5.5654,-5.5413,-5.5379,-5.5345,-5.5314,-5.5677,-5.5678,-5.5905,-5.5907,-5.5909]},{"header":{"parameterUnit":"m.s-1","parameterCategory":1,"la1":30.2991,"la2":30.254,"lo1":-89.0895,"lo2":-89.0444,"dy":0.0017,"dx":0.0017,"nx":28,"ny":28,"refTime":"2025-11-27T09:00:00:Z","depth":0,"parameterNumber":3,"parameterNumberName":"V-component_of_WINDS"},"data":[0,0,0,0,0,0,0,0,0,0,0,0,0,0,0,0,0,0,0,0,0,0,0,0,0,0,0,0,0,0,0,0,0,0,0,0,0,0,0,0,0,0,0,0,0,0,0,0,0,0,0,0,0,0,0,0,0,0,-3.9902,-3.9903,0,-3.9974,-3.9975,-3.9976,-3.9934,-3.9932,-3.993,-3.9928,-3.9999,-4.0003,-4.0006,0,0,0,0,0,0,0,0,0,0,0,0,0,-3.9723,-3.9727,-3.9902,-3.9903,-3.9904,-3.9974,-3.9975,-3.9976,-3.9934,-3.9932,-3.9929,-3.9927,-3.9998,-4.0002,-4.0007,0,0,0,0,0,0,0,0,0,0,0,0,0,-3.9799,-3.9728,-3.9902,-3.9892,-3.9891,-3.9974,-3.9975,-3.9976,-3.9935,-3.9932,-3.9929,-3.9926,-3.9996,-4.0002,-4.0007,-4.0103,0,0,-4.0025,-4.0027,0,0,0,0,0,0,0,0,-3.9795,-3.9805,-3.9892,-3.9893,-3.9892,-3.9942,-3.9938,-4.0019,-3.9935,-3.9918,-3.9928,-3.9924,-3.9982,-3.9989,-4.0009,-4.0107,-4.011,-4.0025,-4.0029,-4.0031,-4.0033,0,0,0,0,0,0,0,-3.9789,-3.9802,-3.9931,-3.9894,-3.9894,-3.9882,-3.9889,-3.9953,-3.9966,-3.9919,-3.9917,-3.9926,-3.9982,-4.0004,-4.001,-4.0111,-4.0025,-4.003,-4.0034,-4.0036,-4.0287,-4.029,0,0,0,0,0,0,-3.9785,-3.9798,-3.9928,-3.9933,-3.9835,-3.9887,-3.9896,-3.9929,-3.9966,-3.9968,-3.9928,-3.9924,-3.9995,-4.0004,-4.0013,-4.0125,-4.0031,-4.0036,-4.004,-4.0284,-4.0288,-4.0291,0,0,0,0,0,0,-3.9782,-3.9798,-3.9925,-3.9865,-3.988,-3.9894,-3.9932,-3.9932,-3.9954,-3.9972,-3.9974,-3.9949,-3.9993,-4.0005,-4.008,-4.0127,-4.0039,-4.0044,-4.028,-4.0285,-4.0289,-4.0352,0,0,0,0,0,0,-3.9777,-3.9796,-3.9834,-3.9866,-3.9883,-3.9994,-3.9935,-3.9936,-3.9964,-3.9959,-3.9992,-3.9994,-3.9992,-4.0072,-4.0086,-4.0133,-4.0048,-4.0276,-4.0282,-4.0288,-4.0346,-4.0359,-4.0369,0,0,0,0,0,-3.9771,-3.9849,-3.9837,-3.9853,-3.9931,-3.9997,-4.0006,-4.0003,-3.9968,-4.0005,-4.0017,-3.9993,-4.012,-4.008,-4.0096,-4.0145,-4.0273,-4.028,-4.0287,-4.0341,-4.0356,-4.0369,0,0,0,0,0,0,-3.9823,-3.9853,-3.984,-3.9931,-3.9962,-3.9989,-4.0036,-4.002,-4.006,-4.0053,-4.0046,-4.0053,-4.0132,-4.0146,-4.0102,-4.0238,-4.0191,-4.0201,-4.0226,-4.0241,-4.0252,-4.0246,-4.0053,0,0,0,0,0,-3.9845,-3.9897,-3.992,-3.9999,-4.0015,-4.0023,-4.0051,-4.0046,-4.0076,-4.0089,-4.0106,-4.0135,-4.0181,-4.0212,-4.0256,-4.0348,-4.0353,-4.0389,-4.0401,-4.0411,-4.0419,-4.0466,-4.0482,-4.0315,-4.0315,-4.0315,0,0,-3.9891,-3.9915,-3.9948,-4.001,-4.0033,-4.0084,-4.0034,-4.0092,-4.0129,-4.0097,-4.0169,-4.0183,-4.0215,-4.0299,-4.0336,-4.0313,-4.0466,-4.042,-4.0427,-4.0431,-4.0475,-4.0491,-4.0505,-4.032,-4.0319,-4.0319,0,0,-4.0002,-4.0026,-4.0092,-4.0116,-4.0151,-4.0156,-4.0172,-4.0202,-4.0209,-4.0282,-4.0258,-4.0302,-4.0382,-4.0405,-4.0428,-4.0544,-4.0523,-4.0559,-4.0619,-4.0665,-4.0678,-4.0689,-4.0728,-4.0743,-4.0568,-4.0568,-4.0568,0,-4.0055,-4.0133,-4.0128,-4.0187,-4.0214,-4.0187,-4.0253,-4.0276,-4.0323,-4.0341,-4.0315,-4.0413,-4.0434,-4.0521,-4.0549,-4.0569,-4.0585,-4.0554,-4.0677,-4.0688,-4.0699,-4.0736,-4.0751,-4.0572,-4.0571,-4.0571,-4.0571,0,-4.0195,-4.0249,-4.0298,-4.0345,-4.0377,-4.0439,-4.0442,-4.0475,-4.0466,-4.0472,-4.0545,-4.0568,-4.0614,-4.0635,-4.0627,-4.072,-4.0704,-4.0678,-4.0629,-4.0719,-4.0753,-4.0767,-4.0577,-4.0576,-4.0575,-4.0574,0,0,-4.0341,-4.0382,-4.04,-4.0419,-4.0455,-4.0496,-4.0556,-4.0602,-4.0629,-4.0662,-4.071,-4.0778,-4.0752,-4.0777,-4.0772,-4.0812,-4.0899,-4.078,-4.078,-4.0799,-4.1,-4.1018,-4.1035,-4.0886,-4.0889,-4.0891,-4.0996,0,-4.0451,-4.0556,-4.0553,-4.065,-4.0698,-4.0673,-4.0724,-4.075,-4.0758,-4.0798,-4.0806,-4.0853,-4.0818,-4.0832,-4.0871,-4.088,-4.0939,-4.0873,-4.0928,-4.093,-4.0919,-4.1054,-4.1074,-4.1173,-4.101,-4.1012,-4.1014,0,-4.0595,-4.0632,-4.0734,-4.076,-4.078,-4.0827,-4.0867,-4.0907,-4.0935,-4.0938,-4.0965,-4.0952,-4.101,-4.0961,-4.1039,-4.0994,-4.1016,-4.1024,-4.1028,-4.1031,-4.0976,-4.1059,-4.1204,-4.1218,-4.1036,-4.1034,-4.1033,0,-4.0688,-4.0764,-4.0834,-4.0851,-4.0884,-4.0917,-4.0932,-4.0957,-4.0984,-4.1019,-4.1036,-4.1077,-4.1099,-4.113,-4.1127,-4.1093,-4.1206,-4.1157,-4.1207,-4.1207,-4.1231,-4.1229,-4.138,-4.1249,-4.1249,-4.1248,-4.1248,0,-4.0811,-4.0873,-4.0875,-4.0918,-4.0987,-4.0981,-4.1049,-4.106,-4.1082,-4.1125,-4.1106,-4.1146,-4.1142,-4.1182,-4.118,-4.1243,-4.1254,-4.1256,-4.1254,-4.1257,-4.1256,-4.127,-4.1262,-4.1252,-4.1251,-4.1251,-4.125,0,-4.0926,-4.093,-4.1004,-4.1029,-4.1036,-4.1085,-4.1105,-4.1145,-4.115,-4.1205,-4.1217,-4.1225,-4.1271,-4.1272,-4.1325,-4.1323,-4.14,-4.1391,-4.139,-4.1388,-4.1437,-4.1431,-4.16,-4.1621,-4.1478,-4.148,-4.1481,0,-4.1003,-4.1051,-4.108,-4.1107,-4.1124,-4.1169,-4.1196,-4.1192,-4.122,-4.1255,-4.1289,-4.1334,-4.1369,-4.1443,-4.1452,-4.1492,-4.1483,-4.1539,-4.1489,-4.1489,-4.1481,-4.1477,-4.1481,-4.1549,-4.155,-4.1552,-4.1553,0,-4.1139,-4.1138,-4.1178,-4.1219,-4.1251,-4.1283,-4.1312,-4.1335,-4.1333,-4.1366,-4.1413,-4.144,-4.1493,-4.1536,-4.1574,-4.1588,-4.1569,-4.1569,-4.1582,-4.1584,-4.158,-4.158,-4.1415,-4.1565,-4.1563,-4.1563,-4.1562,-4.1561,-4.1236,-4.1276,-4.1302,-4.1346,-4.1367,-4.1394,-4.1432,-4.1441,-4.1481,-4.1524,-4.1518,-4.157,-4.1594,-4.1643,-4.166,-4.1698,-4.1679,-4.1698,-4.1703,-4.1707,-4.1712,-4.1575,-4.1706,-4.1705,-4.1705,-4.1705,-4.1704,0,-4.1368,-4.1383,-4.1425,-4.1465,-4.15,-4.148,-4.151,-4.154,-4.1586,-4.161,-4.1645,-4.1697,-4.1738,-4.1751,-4.179,-4.1818,-4.1811,-4.1829,-4.1825,-4.1828,-4.1728,-4.1712,-4.1834,-4.1834,-4.1834,-4.1834,-4.1834,-4.1834,-4.1441,-4.1507,-4.1508,-4.1583,-4.1597,-4.1648,-4.1667,-4.169,-4.171,-4.1769,-4.1803,-4.1811,-4.183,-4.187,-4.1906,-4.1909,-4.1923,-4.1944,-4.1943,-4.1849,-4.1836,-4.1823,-4.1808,-4.1948,-4.1948,-4.2039,-4.204,-4.2041]}]]